CW8944 Weather Reports


time (UTC)temp
F
wind
direction
speed
knots
gust
knots
rain 1hr
in
rain 24hr
in
rain mn
in
humidity
%
barometer
mb
20240521030511 53 0 0.0 0.0 0.00 0.01 0.01 91 1015.3
20240521030018 54 0 0.0 0.0 0.00 0.01 0.01 91 1015.3
20240521025512 54 0 0.0 0.0 0.00 0.01 0.01 91 1015.2
20240521025009 54 0 0.0 0.0 0.00 0.01 0.01 91 1015.2
20240521024515 54 0 0.0 0.0 0.00 0.01 0.01 91 1015.2
20240521024008 54 0 0.0 0.0 0.00 0.01 0.01 91 1015.4
20240521023512 54 0 0.0 0.0 0.00 0.01 0.01 91 1015.3
20240521023014 54 0 0.0 0.0 0.00 0.01 0.01 91 1015.3
20240521022510 54 0 0.0 0.0 0.00 0.01 0.01 90 1015.3
20240521022010 54 0 0.0 0.0 0.00 0.01 0.01 90 1015.3
20240521021516 54 0 0.0 0.0 0.00 0.01 0.01 90 1015.2
20240521021011 55 0 0.0 0.0 0.00 0.01 0.01 90 1015.2
20240521020511 55 0 0.0 0.0 0.00 0.01 0.01 89 1015.1
20240521020016 55 0 0.0 0.0 0.00 0.01 0.01 89 1015.1
20240521015511 55 0 0.0 0.0 0.00 0.01 0.01 89 1015.1
20240521015011 55 0 0.0 0.0 0.00 0.01 0.01 88 1015.0
20240521014513 55 0 0.0 0.0 0.00 0.01 0.01 88 1015.2
20240521014009 56 0 0.0 0.0 0.00 0.01 0.01 88 1015.1
20240521013510 56 0 0.0 0.0 0.00 0.01 0.01 88 1015.3
20240521013025 56 0 0.0 0.0 0.00 0.01 0.01 87 1015.3
20240521012509 56 0 0.0 0.0 0.00 0.01 0.01 87 1015.1
20240521012008 56 0 0.0 0.0 0.00 0.01 0.01 87 1015.0
20240521011515 56 0 0.0 0.0 0.00 0.01 0.01 87 1015.1
20240521011011 57 0 0.0 0.0 0.00 0.01 0.01 87 1015.0
20240521010510 57 0 0.0 0.0 0.00 0.01 0.01 86 1015.0
20240521010015 57 0 0.0 0.0 0.00 0.01 0.01 86 1014.9
20240521005511 57 0 0.0 0.0 0.00 0.01 0.01 86 1014.9
20240521005012 57 0 0.0 0.0 0.00 0.01 0.01 86 1014.9
20240521004518 57 0 0.0 0.0 0.00 0.01 0.01 85 1014.8
20240521004010 58 0 0.0 0.0 0.00 0.01 0.01 85 1014.7
20240521003511 58 0 0.0 0.0 0.00 0.01 0.01 84 1014.7
20240521003015 58 0 0.0 0.0 0.00 0.01 0.01 84 1014.8
20240521002509 58 0 0.0 0.0 0.00 0.01 0.01 83 1014.7
20240521002009 58 0 0.0 0.0 0.00 0.01 0.01 83 1014.7
20240521001518 59 0 0.0 0.0 0.00 0.01 0.01 82 1014.7
20240521001011 59 0 0.0 0.0 0.00 0.01 0.01 82 1014.7
20240521000511 59 0 0.0 0.0 0.00 0.01 0.01 81 1014.8
20240521000015 60 0 0.0 0.0 0.00 0.01 0.01 80 1014.7
20240520235509 60 0 0.0 5.2 0.00 0.01 0.01 79 1014.6
20240520235009 60 0 0.0 5.2 0.00 0.01 0.01 79 1014.5
20240520234514 61 0 0.0 1.7 0.00 0.01 0.01 78 1014.5
20240520234011 61 0 0.0 1.7 0.00 0.01 0.01 77 1014.4
20240520233511 61 0 0.0 1.7 0.00 0.01 0.01 77 1014.4
20240520233016 62 0 0.0 0.9 0.00 0.01 0.01 76 1014.6
20240520232511 62 0 0.0 0.0 0.00 0.01 0.01 76 1014.5
20240520232015 62 0 0.0 4.3 0.00 0.01 0.01 76 1014.6
20240520231522 62 0 0.0 4.3 0.00 0.01 0.01 75 1014.7
20240520231018 62 0 0.0 4.3 0.00 0.01 0.01 74 1014.7
20240520230510 63 177 0.0 5.2 0.00 0.01 0.01 74 1014.8
20240520230015 63 0 0.0 5.2 0.00 0.01 0.01 74 1014.7
20240520225513 64 0 0.0 5.2 0.00 0.01 0.01 73 1014.7
20240520225010 64 0 0.0 5.2 0.00 0.01 0.01 75 1014.6
20240520224519 64 0 0.0 0.0 0.00 0.01 0.01 75 1014.6
20240520224012 64 0 0.0 4.3 0.00 0.01 0.01 74 1014.7
20240520223510 64 0 0.0 4.3 0.00 0.01 0.01 73 1014.8
20240520223028 64 176 0.0 4.3 0.00 0.01 0.01 73 1014.8
20240520222511 65 0 0.0 3.5 0.00 0.01 0.01 74 1014.9
20240520222008 65 0 0.0 3.5 0.00 0.01 0.01 74 1014.9
20240520221516 65 0 0.0 3.5 0.00 0.01 0.01 74 1015.0
20240520221011 65 0 0.0 3.5 0.00 0.01 0.01 74 1014.9
20240520220511 65 0 0.0 4.3 0.00 0.01 0.01 73 1015.0
20240520220028 65 172 0.9 4.3 0.00 0.01 0.01 73 1015.0
20240520215510 65 0 0.0 0.0 0.00 0.01 0.01 73 1015.0
20240520215012 66 0 0.0 2.6 0.00 0.01 0.01 72 1015.1
20240520214516 66 0 0.0 5.2 0.00 0.01 0.01 72 1015.0
20240520214011 66 0 0.0 5.2 0.00 0.01 0.01 71 1015.1
20240520213510 67 174 0.0 4.3 0.00 0.01 0.01 70 1015.0
20240520213015 67 0 0.0 4.3 0.00 0.01 0.01 70 1015.1
20240520212511 67 0 0.0 4.3 0.00 0.01 0.01 71 1015.1
20240520212011 67 229 0.0 4.3 0.00 0.01 0.01 70 1015.1
20240520211516 67 0 0.0 5.2 0.00 0.01 0.01 69 1015.1
20240520211008 68 0 0.0 7.0 0.00 0.01 0.01 69 1015.1
20240520210508 68 130 1.7 7.0 0.00 0.01 0.01 69 1015.1
20240520210015 68 0 0.0 7.0 0.00 0.01 0.01 68 1015.1
20240520205509 69 91 0.9 7.0 0.00 0.01 0.01 66 1015.2
20240520205011 69 142 0.9 6.1 0.00 0.01 0.01 67 1015.1
20240520204516 69 0 0.0 6.1 0.00 0.01 0.01 69 1015.2
20240520204012 69 0 0.0 6.1 0.00 0.01 0.01 70 1015.2
20240520203511 69 0 0.9 6.1 0.00 0.01 0.01 69 1015.4
20240520203017 69 0 0.9 4.3 0.00 0.01 0.01 68 1015.3
20240520202511 69 0 0.0 4.3 0.00 0.01 0.01 67 1015.3
20240520202012 70 0 0.0 6.1 0.00 0.01 0.01 66 1015.3
20240520201526 70 0 0.0 6.1 0.00 0.01 0.01 66 1015.3
20240520201011 70 0 0.9 8.7 0.00 0.01 0.01 66 1015.2
20240520200513 70 0 0.9 8.7 0.00 0.01 0.01 65 1015.3
20240520200018 71 0 1.7 8.7 0.00 0.01 0.01 64 1015.4
20240520195515 71 0 0.9 7.8 0.00 0.01 0.01 65 1015.5
20240520195011 71 0 0.0 7.8 0.00 0.01 0.01 66 1015.5
20240520194519 71 192 0.9 7.8 0.00 0.01 0.01 65 1015.7
20240520194011 71 0 0.9 7.8 0.00 0.01 0.01 65 1015.6
20240520193511 71 0 0.9 7.8 0.00 0.01 0.01 65 1015.9
20240520193016 71 184 1.7 5.2 0.00 0.01 0.01 65 1015.6
20240520192514 71 0 0.0 6.1 0.00 0.01 0.01 66 1015.7
20240520192011 70 0 0.0 7.8 0.00 0.01 0.01 67 1015.7
20240520191548 71 132 0.9 8.7 0.00 0.01 0.01 66 1015.7
20240520191018 71 122 0.0 8.7 0.00 0.01 0.01 66 1015.7
20240520190511 71 0 0.9 4.3 0.00 0.01 0.01 67 1015.7
20240520190017 70 0 0.0 7.0 0.00 0.01 0.01 68 1015.8
20240520185511 69 0 1.7 7.0 0.00 0.01 0.01 68 1015.8
20240520185013 70 0 0.9 6.1 0.00 0.01 0.01 67 1016.0
20240520184516 71 0 0.0 5.2 0.00 0.01 0.01 65 1015.9
20240520184012 71 0 0.0 5.2 0.00 0.01 0.01 64 1015.9
20240520183512 71 165 1.7 5.2 0.00 0.01 0.01 64 1015.9
20240520183014 71 0 0.0 5.2 0.00 0.01 0.01 67 1016.0
20240520182511 70 193 0.9 3.5 0.00 0.01 0.01 64 1016.0
20240520182011 70 0 0.0 6.1 0.00 0.01 0.01 65 1016.0
20240520181514 69 0 0.0 6.1 0.00 0.01 0.01 65 1016.1
20240520181013 69 183 1.7 6.1 0.00 0.01 0.01 65 1016.2
20240520180511 70 0 0.0 0.0 0.00 0.01 0.01 66 1016.2
20240520180014 70 0 0.0 4.3 0.00 0.01 0.01 66 1016.0
20240520175511 70 0 0.0 4.3 0.00 0.01 0.01 67 1016.2
20240520175015 69 108 0.9 5.2 0.00 0.01 0.01 70 1016.2
20240520174519 69 0 0.0 6.1 0.00 0.01 0.01 67 1016.2
20240520174012 69 0 0.0 6.1 0.00 0.01 0.01 70 1016.3
20240520173511 69 0 0.0 3.5 0.00 0.01 0.01 71 1016.2
20240520173014 68 0 0.9 5.2 0.00 0.01 0.01 71 1016.2
20240520172513 67 224 1.7 5.2 0.00 0.01 0.01 70 1016.3
20240520172011 67 130 0.0 4.3 0.00 0.01 0.01 72 1016.4
20240520171518 66 0 0.0 4.3 0.00 0.01 0.01 71 1016.4
20240520171011 67 189 0.0 4.3 0.00 0.01 0.01 71 1016.4
20240520170514 67 0 0.0 3.5 0.00 0.01 0.01 70 1016.4
20240520170015 67 0 0.0 2.6 0.00 0.01 0.01 74 1016.6
20240520165511 66 0 0.0 0.0 0.00 0.01 0.01 75 1016.7
20240520165012 66 0 0.0 0.0 0.00 0.01 0.01 72 1016.6
20240520164528 66 0 0.0 0.0 0.00 0.01 0.01 72 1016.8
20240520164011 67 0 0.0 4.3 0.00 0.01 0.01 76 1016.8
20240520163511 66 0 0.9 4.3 0.00 0.01 0.01 78 1016.9
20240520163017 65 0 0.0 0.9 0.00 0.01 0.01 78 1016.9
20240520162511 64 0 0.0 4.3 0.00 0.01 0.01 81 1017.0
20240520162011 63 0 0.0 4.3 0.00 0.01 0.01 82 1017.1
20240520161515 62 0 0.0 3.5 0.00 0.01 0.01 81 1017.1
20240520161009 62 0 0.0 5.2 0.00 0.01 0.01 80 1017.2
20240520160511 62 236 0.9 5.2 0.00 0.01 0.01 80 1017.2
20240520160038 62 234 0.0 5.2 0.00 0.01 0.01 82 1017.1
20240520155509 62 0 0.0 0.0 0.00 0.01 0.01 83 1017.2
20240520155010 61 0 0.0 0.0 0.00 0.01 0.01 82 1017.2
20240520154526 61 0 0.0 3.5 0.00 0.01 0.01 83 1017.2
20240520154009 61 0 0.0 3.5 0.00 0.01 0.01 83 1017.3
20240520153511 61 185 0.0 3.5 0.00 0.01 0.01 84 1017.2
20240520153015 61 0 0.0 2.6 0.00 0.01 0.01 86 1017.2
20240520152510 60 0 0.0 0.0 0.00 0.01 0.01 87 1017.1
20240520152011 60 0 0.0 3.5 0.00 0.01 0.01 88 1017.2
20240520151521 59 0 0.0 3.5 0.00 0.01 0.01 86 1017.1
20240520151011 59 197 0.9 3.5 0.00 0.01 0.01 88 1017.2
20240520150513 59 0 0.0 0.0 0.00 0.01 0.01 88 1017.4
20240520150016 59 0 0.0 2.6 0.00 0.01 0.01 87 1017.2
20240520145510 59 0 0.0 2.6 0.00 0.01 0.01 88 1017.1
20240520145009 59 0 0.0 0.0 0.00 0.01 0.01 89 1017.1
20240520144523 58 0 0.0 0.0 0.00 0.01 0.01 89 1017.1
20240520144008 58 0 0.0 2.6 0.00 0.01 0.01 89 1016.8
20240520143511 58 0 0.0 2.6 0.00 0.01 0.01 90 1016.8
20240520143015 58 0 0.0 0.0 0.00 0.01 0.01 90 1016.8
20240520142512 58 0 0.0 2.6 0.00 0.01 0.01 91 1016.8
20240520142010 58 0 0.0 4.3 0.00 0.01 0.01 91 1017.0
20240520141514 58 0 0.0 4.3 0.00 0.01 0.01 91 1017.0
20240520141009 58 0 0.0 0.0 0.00 0.01 0.01 93 1017.1
20240520140508 57 0 0.0 0.0 0.00 0.01 0.01 93 1017.2
20240520140019 57 0 0.0 3.5 0.00 0.01 0.01 92 1017.1
20240520135510 56 0 0.0 3.5 0.00 0.01 0.01 92 1017.1
20240520135011 57 0 0.9 3.5 0.00 0.01 0.01 92 1017.1
20240520134512 57 0 0.0 0.0 0.00 0.01 0.01 93 1017.1
20240520134013 57 0 0.0 0.0 0.00 0.01 0.01 93 1017.2
20240520133514 56 0 0.0 3.5 0.00 0.01 0.01 93 1017.2
20240520133015 56 0 0.0 3.5 0.00 0.01 0.01 93 1017.2
20240520132511 56 0 0.0 0.0 0.00 0.01 0.01 93 1017.4
20240520132008 56 0 0.0 0.0 0.00 0.01 0.01 94 1017.4
20240520131513 56 0 0.0 0.0 0.00 0.01 0.01 94 1017.4
20240520131009 56 0 0.0 0.0 0.00 0.01 0.01 94 1017.4
20240520130509 56 0 0.0 0.0 0.00 0.01 0.01 94 1017.4
20240520130014 56 0 0.0 0.0 0.00 0.01 0.01 94 1017.4
20240520125510 56 0 0.0 0.0 0.00 0.01 0.01 94 1017.4
20240520125011 56 0 0.0 0.0 0.00 0.01 0.01 94 1017.4
20240520124516 56 0 0.0 0.0 0.00 0.01 0.01 94 1017.4
20240520124008 56 0 0.0 0.0 0.00 0.01 0.01 94 1017.4
20240520123508 56 0 0.0 0.0 0.00 0.01 0.01 94 1017.6
20240520123022 56 0 0.0 0.0 0.00 0.01 0.01 94 1017.7
20240520122508 56 0 0.0 0.0 0.00 0.01 0.01 95 1017.6
20240520122008 55 0 0.0 0.0 0.00 0.01 0.01 94 1017.6
20240520121515 56 0 0.0 0.0 0.00 0.01 0.01 94 1017.6
20240520121010 56 0 0.0 0.0 0.00 0.01 0.01 95 1017.6
20240520120513 56 0 0.0 0.0 0.00 0.01 0.01 95 1017.7
20240520120021 56 0 0.0 0.0 0.00 0.01 0.01 95 1017.7
20240520115508 56 0 0.0 0.0 0.00 0.01 0.01 95 1017.7
20240520115009 55 0 0.0 0.0 0.00 0.01 0.01 95 1017.6
20240520114517 55 0 0.0 0.0 0.00 0.01 0.01 95 1017.6
20240520114009 55 0 0.0 0.0 0.00 0.01 0.01 95 1017.5
20240520113509 55 0 0.0 0.0 0.00 0.01 0.01 95 1017.4
20240520113024 55 0 0.0 0.0 0.00 0.01 0.01 95 1017.4
20240520112510 55 0 0.0 0.0 0.00 0.01 0.01 95 1017.2
20240520112008 55 0 0.0 0.0 0.00 0.01 0.01 95 1017.2
20240520111519 55 0 0.0 0.0 0.00 0.01 0.01 95 1017.1
20240520111009 55 0 0.0 0.0 0.00 0.01 0.01 95 1017.2
20240520110509 55 0 0.0 0.0 0.00 0.01 0.01 95 1017.1
20240520110021 55 0 0.0 0.0 0.00 0.01 0.01 95 1017.1
20240520105510 55 0 0.0 0.0 0.00 0.01 0.01 95 1017.1
20240520105205 54 0 0.0 0.0 0.00 0.01 0.01 95 1017.1
20240520104516 55 0 0.0 0.0 0.00 0.01 0.01 95 1017.0
20240520104007 54 0 0.0 0.0 0.00 0.01 0.01 95 1017.1
20240520103511 54 0 0.0 0.0 0.00 0.01 0.01 95 1017.1
20240520103014 54 0 0.0 0.0 0.00 0.01 0.01 95 1017.1
20240520102511 54 0 0.0 0.0 0.00 0.01 0.01 95 1017.1
20240520102009 54 0 0.0 0.0 0.00 0.01 0.01 95 1017.1
20240520101514 54 0 0.0 0.0 0.00 0.01 0.01 95 1017.1
20240520101008 54 0 0.0 0.0 0.00 0.01 0.01 95 1017.1
20240520100509 54 0 0.0 0.0 0.00 0.01 0.01 95 1017.0
20240520100015 54 0 0.0 0.0 0.00 0.01 0.01 95 1017.0
20240520095510 54 0 0.0 0.0 0.00 0.01 0.01 95 1017.0
20240520095012 54 0 0.0 0.0 0.00 0.01 0.01 95 1017.0
20240520094517 54 0 0.0 0.0 0.00 0.01 0.01 95 1017.1
20240520094011 54 0 0.0 0.0 0.00 0.01 0.01 95 1017.1
20240520093510 54 0 0.0 0.0 0.00 0.01 0.01 95 1017.1
20240520093016 54 0 0.0 0.0 0.00 0.01 0.01 95 1017.1
20240520092512 54 0 0.0 0.0 0.00 0.01 0.01 95 1017.1
20240520092009 54 0 0.0 0.0 0.00 0.01 0.01 95 1017.1
20240520091517 54 0 0.0 0.0 0.00 0.01 0.01 95 1017.1
20240520091012 54 0 0.0 0.0 0.00 0.01 0.01 95 1017.0
20240520090511 54 0 0.0 0.0 0.00 0.01 0.01 95 1017.0
20240520090017 54 0 0.0 0.0 0.00 0.01 0.01 95 1017.0
20240520085512 54 0 0.0 0.0 0.00 0.01 0.01 95 1017.0
20240520085012 54 0 0.0 0.0 0.00 0.01 0.01 95 1017.0
20240520084514 54 0 0.0 0.0 0.00 0.01 0.01 95 1017.0
20240520084012 54 0 0.0 0.0 0.01 0.01 0.01 95 1017.0
20240520083512 54 0 0.0 0.0 0.01 0.01 0.01 95 1017.0
20240520083034 54 0 0.0 0.0 0.01 0.01 0.01 95 1017.0
20240520082512 54 0 0.0 0.0 0.01 0.01 0.01 95 1016.9
20240520082011 54 0 0.0 0.0 0.01 0.01 0.01 94 1017.0
20240520081516 54 0 0.0 0.0 0.01 0.01 0.01 94 1017.0
20240520081012 54 0 0.0 0.0 0.01 0.01 0.01 94 1017.0
20240520080512 54 0 0.0 0.0 0.01 0.01 0.01 94 1016.9
20240520080015 54 0 0.0 0.0 0.01 0.01 0.01 94 1017.0
20240520075508 54 0 0.0 0.0 0.01 0.02 0.01 95 1017.0
20240520075013 54 0 0.0 0.0 0.01 0.02 0.01 95 1017.1
20240520074513 54 0 0.0 0.0 0.01 0.02 0.01 94 1017.2
20240520074013 54 0 0.0 0.0 0.00 0.01 0.00 95 1017.1
20240520073511 54 0 0.0 0.0 0.00 0.01 0.00 95 1017.2
20240520073017 54 0 0.0 0.0 0.00 0.01 0.00 94 1017.1
20240520072512 54 0 0.0 0.0 0.00 0.01 0.00 94 1017.1
20240520072012 54 0 0.0 0.0 0.00 0.01 0.00 94 1017.0
20240520071534 54 0 0.0 0.0 0.00 0.01 0.00 94 1017.0
20240520071010 54 0 0.0 0.0 0.00 0.01 0.00 94 1016.8
20240520070512 54 0 0.0 0.0 0.00 0.01 0.00 94 1017.0
20240520070016 54 0 0.0 0.0 0.00 0.01 0.00 94 1016.8
20240520065513 54 0 0.0 0.0 0.00 0.02 0.00 94 1016.8
20240520065008 54 0 0.0 0.0 0.00 0.02 0.00 94 1016.9
20240520064513 54 0 0.0 0.0 0.00 0.02 0.00 94 1016.8
20240520064012 54 0 0.0 0.0 0.00 0.02 0.00 94 1016.9
20240520063514 54 0 0.0 0.0 0.00 0.02 0.00 94 1016.8
20240520063033 54 0 0.0 0.0 0.00 0.02 0.00 94 1016.9
20240520062512 54 0 0.0 0.0 0.00 0.02 0.00 94 1017.0
20240520062008 54 0 0.0 0.0 0.00 0.02 0.00 94 1017.1
20240520061514 54 0 0.0 0.0 0.00 0.02 0.00 94 1017.1
20240520061013 54 0 0.0 0.0 0.00 0.02 0.00 94 1017.0
20240520060512 54 0 0.0 0.0 0.00 0.02 0.00 94 1017.1
20240520060015 54 0 0.0 0.0 0.00 0.02 0.00 94 1017.0
20240520055508 54 0 0.0 0.0 0.00 0.02 0.00 94 1017.2
20240520055011 54 0 0.0 0.0 0.00 0.02 0.00 94 1017.2
20240520054515 54 0 0.0 0.0 0.00 0.02 0.00 94 1017.2
20240520054012 54 0 0.0 0.0 0.00 0.02 0.00 94 1017.2
20240520053510 54 0 0.0 0.0 0.00 0.02 0.00 94 1017.2
20240520053023 54 0 0.0 0.0 0.00 0.02 0.00 94 1017.3
20240520052512 54 0 0.0 0.0 0.00 0.02 0.00 94 1017.4
20240520052012 54 0 0.0 0.0 0.00 0.02 0.00 94 1017.3
20240520051518 54 0 0.0 0.0 0.00 0.02 0.00 94 1017.3
20240520051011 54 0 0.0 0.0 0.00 0.02 0.00 94 1017.3
20240520050512 54 0 0.0 0.0 0.00 0.02 0.00 94 1017.3
20240520050017 54 0 0.0 0.0 0.00 0.02 0.00 94 1017.4
20240520045512 54 0 0.0 0.0 0.00 0.02 0.00 94 1017.5
20240520045011 54 0 0.0 0.0 0.00 0.02 0.00 94 1017.4
20240520044513 54 0 0.0 0.0 0.00 0.02 0.00 94 1017.4
20240520044008 54 0 0.0 0.0 0.00 0.02 0.00 93 1017.4
20240520043509 54 0 0.0 0.0 0.00 0.02 0.00 93 1017.3
20240520043017 54 0 0.0 0.0 0.00 0.02 0.00 93 1017.3
20240520042513 54 0 0.0 0.0 0.00 0.02 0.00 93 1017.4
20240520042012 54 0 0.0 0.0 0.00 0.02 0.00 93 1017.4
20240520041516 54 0 0.0 0.0 0.00 0.02 0.00 93 1017.4
20240520041011 54 0 0.0 0.0 0.00 0.02 0.00 93 1017.4
20240520040514 54 0 0.0 0.0 0.00 0.02 0.00 93 1017.5
20240520040014 54 0 0.0 0.0 0.00 0.02 0.00 93 1017.5
20240520035512 54 0 0.0 0.0 0.00 0.03 0.02 93 1017.4
20240520035009 54 0 0.0 0.0 0.00 0.03 0.02 93 1017.5
20240520034513 54 0 0.0 0.0 0.00 0.03 0.02 93 1017.5
20240520034011 54 0 0.0 0.0 0.00 0.03 0.02 93 1017.5
20240520033511 54 0 0.0 0.0 0.00 0.03 0.02 93 1017.4
20240520033030 54 0 0.0 0.0 0.00 0.03 0.02 93 1017.4
20240520032511 54 0 0.0 0.0 0.00 0.03 0.02 93 1017.4
20240520032016 54 0 0.0 0.0 0.00 0.03 0.02 93 1017.4
20240520031515 54 0 0.0 0.0 0.00 0.03 0.02 93 1017.5
20240520031008 54 0 0.0 0.0 0.00 0.03 0.02 93 1017.4